When you browse on this site, cookies collect data to enhance your experience and personalize the content and advertising you see.
Visit our Privacy Policy to learn more. By continuing to use the site, you agree to this use of cookies and data.
  • In Österreich
  • Länderverzeichnis
  • Für 7 Tage
  • Wassertemperatur
  • Wetterkarte
  • News
  • Widgets
  • user-avatar
    Anmelden

    Stündliche Wetter Jalalabad

    Heute, 20 Februar, Donnerstag

    Zeit Temperatur Niederschläge Wind Luftdruck Luftfeuchtigkeit
    00:00 +10°C° 1.5 mm 1 m/S 711 mmHg 86%
    01:00 +9°C° 1.5 mm 2 m/S 711 mmHg 86%
    02:00 +8°C° 1.5 mm 2 m/S 711 mmHg 86%
    03:00 +9°C° 2.6 mm 1 m/S 711 mmHg 88%
    04:00 +9°C° 2.6 mm 1 m/S 711 mmHg 90%
    05:00 +8°C° 0 mm 1 m/S 710 mmHg 95%
    06:00 +8°C° 1.6 mm 2 m/S 710 mmHg 91%
    07:00 +8°C° 1.6 mm 2 m/S 711 mmHg 88%
    08:00 +8°C° 1.6 mm 3 m/S 711 mmHg 85%
    09:00 +9°C° 0.3 mm 3 m/S 712 mmHg 80%
    10:00 +10°C° 0.3 mm 3 m/S 712 mmHg 76%
    11:00 +12°C° 0 mm 2 m/S 712 mmHg 70%
    12:00 +14°C° 0 mm 2 m/S 712 mmHg 64%
    13:00 +15°C° 0 mm 2 m/S 711 mmHg 57%
    14:00 +17°C° 0 mm 2 m/S 711 mmHg 50%
    15:00 +17°C° 0 mm 2 m/S 711 mmHg 47%
    16:00 +19°C° 0 mm 1 m/S 711 mmHg 45%
    17:00 +19°C° 0 mm 1 m/S 712 mmHg 42%
    18:00 +18°C° 0 mm 1 m/S 712 mmHg 47%
    19:00 +16°C° 0 mm 1 m/S 712 mmHg 53%
    20:00 +15°C° 0 mm 1 m/S 712 mmHg 58%
    21:00 +15°C° 0 mm 1 m/S 712 mmHg 56%
    22:00 +14°C° 0 mm 2 m/S 712 mmHg 54%
    23:00 +14°C° 0 mm 2 m/S 713 mmHg 51%

    Morgen, 21 Februar, Freitag

    Zeit Temperatur Niederschläge Wind Luftdruck Luftfeuchtigkeit
    00:00 +14°C° 0 mm 2 m/S 712 mmHg 51%
    01:00 +13°C° 0 mm 2 m/S 712 mmHg 50%
    02:00 +13°C° 0 mm 1 m/S 711 mmHg 49%
    03:00 +12°C° 0 mm 1 m/S 711 mmHg 49%
    04:00 +12°C° 0 mm 1 m/S 711 mmHg 48%
    05:00 +12°C° 0 mm 1 m/S 711 mmHg 48%
    06:00 +12°C° 0 mm 1 m/S 711 mmHg 47%
    07:00 +12°C° 0 mm 1 m/S 712 mmHg 47%
    08:00 +12°C° 0 mm 1 m/S 712 mmHg 46%
    09:00 +14°C° 0 mm 1 m/S 712 mmHg 40%
    10:00 +16°C° 0 mm 1 m/S 713 mmHg 34%
    11:00 +19°C° 0 mm 1 m/S 713 mmHg 28%
    18:00 +19°C° 0 mm 0 m/S 713 mmHg 30%
    19:00 +17°C° 0 mm 0 m/S 713 mmHg 36%
    20:00 +16°C° 0 mm 0 m/S 714 mmHg 42%
    21:00 +16°C° 0 mm 0 m/S 714 mmHg 42%
    22:00 +15°C° 0 mm 0 m/S 714 mmHg 42%
    23:00 +15°C° 0 mm 0 m/S 714 mmHg 42%

    übermorgen, 22 Februar, Samstag

    Zeit Temperatur Niederschläge Wind Luftdruck Luftfeuchtigkeit
    00:00 +14°C° 0 mm 0 m/S 714 mmHg 42%
    01:00 +14°C° 0 mm 0 m/S 714 mmHg 42%
    02:00 +13°C° 0 mm 0 m/S 714 mmHg 42%
    03:00 +13°C° 0 mm 0 m/S 714 mmHg 43%
    04:00 +13°C° 0 mm 0 m/S 713 mmHg 43%
    05:00 +13°C° 0 mm 0 m/S 713 mmHg 43%
    06:00 +13°C° 0 mm 0 m/S 714 mmHg 43%
    07:00 +13°C° 0 mm 0 m/S 714 mmHg 43%
    08:00 +15°C° 0 mm 1 m/S 714 mmHg 43%
    09:00 +16°C° 0 mm 1 m/S 715 mmHg 37%
    10:00 +19°C° 0 mm 1 m/S 715 mmHg 31%
    11:00 +21°C° 0 mm 1 m/S 715 mmHg 25%
    12:00 +21°C° 0 mm 1 m/S 714 mmHg 24%
    13:00 +22°C° 0 mm 1 m/S 714 mmHg 23%
    14:00 +23°C° 0 mm 1 m/S 714 mmHg 22%
    15:00 +23°C° 0 mm 1 m/S 713 mmHg 22%
    16:00 +23°C° 0 mm 1 m/S 713 mmHg 22%
    17:00 +23°C° 0 mm 1 m/S 713 mmHg 22%
    18:00 +20°C° 0 mm 0 m/S 713 mmHg 28%
    19:00 +18°C° 0 mm 0 m/S 714 mmHg 34%
    20:00 +17°C° 0 mm 0 m/S 714 mmHg 39%
    21:00 +16°C° 0 mm 0 m/S 714 mmHg 40%
    22:00 +18°C° 0 mm 1 m/S 714 mmHg 40%
    23:00 +16°C° 0 mm 1 m/S 714 mmHg 40%

    23 Februar, Sonntag

    Zeit Temperatur Niederschläge Wind Luftdruck Luftfeuchtigkeit
    00:00 +16°C° 0 mm 1 m/S 714 mmHg 40%
    01:00 +16°C° 0 mm 1 m/S 713 mmHg 40%
    02:00 +15°C° 0 mm 1 m/S 713 mmHg 40%
    03:00 +15°C° 0 mm 1 m/S 713 mmHg 41%
    04:00 +14°C° 0 mm 1 m/S 712 mmHg 41%
    05:00 +14°C° 0 mm 1 m/S 712 mmHg 42%
    06:00 +14°C° 0 mm 1 m/S 712 mmHg 42%
    07:00 +14°C° 0 mm 1 m/S 712 mmHg 42%
    08:00 +15°C° 0 mm 1 m/S 712 mmHg 42%
    09:00 +16°C° 0 mm 1 m/S 713 mmHg 37%
    10:00 +19°C° 0 mm 1 m/S 713 mmHg 32%
    11:00 +21°C° 0 mm 1 m/S 713 mmHg 26%
    12:00 +22°C° 0 mm 1 m/S 712 mmHg 25%
    13:00 +22°C° 0 mm 1 m/S 712 mmHg 23%
    14:00 +23°C° 0 mm 1 m/S 712 mmHg 22%
    15:00 +23°C° 0 mm 1 m/S 712 mmHg 22%
    16:00 +21°C° 0 mm 0 m/S 711 mmHg 22%
    17:00 +22°C° 0 mm 0 m/S 711 mmHg 22%
    18:00 +20°C° 0 mm 0 m/S 711 mmHg 28%
    19:00 +19°C° 0 mm 0 m/S 712 mmHg 33%
    20:00 +17°C° 0 mm 0 m/S 712 mmHg 39%
    21:00 +19°C° 0 mm 1 m/S 712 mmHg 38%
    22:00 +18°C° 0 mm 1 m/S 712 mmHg 38%
    23:00 +18°C° 0 mm 1 m/S 712 mmHg 38%

    24 Februar, Montag

    Zeit Temperatur Niederschläge Wind Luftdruck Luftfeuchtigkeit
    00:00 +16°C° 0 mm 1 m/S 711 mmHg 38%
    01:00 +16°C° 0 mm 1 m/S 711 mmHg 38%
    02:00 +15°C° 0 mm 1 m/S 711 mmHg 39%
    03:00 +15°C° 0 mm 1 m/S 710 mmHg 39%
    04:00 +15°C° 0 mm 1 m/S 710 mmHg 39%
    05:00 +14°C° 0 mm 1 m/S 709 mmHg 40%
    06:00 +14°C° 0 mm 1 m/S 710 mmHg 40%
    07:00 +15°C° 0 mm 1 m/S 710 mmHg 40%
    08:00 +15°C° 0 mm 1 m/S 711 mmHg 40%
    09:00 +16°C° 0 mm 1 m/S 711 mmHg 35%
    10:00 +19°C° 0 mm 1 m/S 711 mmHg 29%
    11:00 +21°C° 0 mm 1 m/S 711 mmHg 24%
    12:00 +22°C° 0 mm 1 m/S 710 mmHg 22%
    13:00 +22°C° 0 mm 1 m/S 710 mmHg 21%
    14:00 +23°C° 0 mm 1 m/S 710 mmHg 19%
    15:00 +23°C° 0 mm 1 m/S 710 mmHg 20%
    16:00 +24°C° 0 mm 1 m/S 709 mmHg 20%
    17:00 +24°C° 0 mm 1 m/S 709 mmHg 20%
    18:00 +20°C° 0 mm 0 m/S 710 mmHg 26%
    19:00 +19°C° 0 mm 0 m/S 710 mmHg 31%
    20:00 +17°C° 0 mm 0 m/S 710 mmHg 36%
    21:00 +19°C° 0 mm 1 m/S 710 mmHg 36%
    22:00 +18°C° 0 mm 1 m/S 711 mmHg 35%
    23:00 +18°C° 0 mm 1 m/S 711 mmHg 34%

    25 Februar, Dienstag

    Zeit Temperatur Niederschläge Wind Luftdruck Luftfeuchtigkeit
    00:00 +18°C° 0 mm 1 m/S 710 mmHg 34%
    01:00 +16°C° 0 mm 2 m/S 710 mmHg 34%
    02:00 +16°C° 0 mm 2 m/S 710 mmHg 34%
    03:00 +15°C° 0 mm 2 m/S 710 mmHg 35%
    04:00 +15°C° 0 mm 2 m/S 710 mmHg 35%
    05:00 +14°C° 0 mm 2 m/S 709 mmHg 36%
    06:00 +14°C° 0 mm 2 m/S 710 mmHg 36%
    07:00 +15°C° 0 mm 1 m/S 710 mmHg 37%
    08:00 +15°C° 0 mm 1 m/S 710 mmHg 37%
    09:00 +16°C° 0 mm 1 m/S 710 mmHg 32%
    10:00 +19°C° 0 mm 1 m/S 710 mmHg 27%
    11:00 +21°C° 0 mm 1 m/S 710 mmHg 22%
    12:00 +22°C° 0 mm 1 m/S 710 mmHg 20%
    13:00 +23°C° 0 mm 1 m/S 710 mmHg 19%
    14:00 +24°C° 0 mm 1 m/S 709 mmHg 17%
    15:00 +24°C° 0 mm 1 m/S 709 mmHg 17%
    16:00 +24°C° 0 mm 1 m/S 709 mmHg 17%
    17:00 +22°C° 0 mm 0 m/S 709 mmHg 17%
    18:00 +20°C° 0 mm 0 m/S 710 mmHg 22%
    19:00 +19°C° 0 mm 0 m/S 710 mmHg 27%
    20:00 +18°C° 0 mm 0 m/S 710 mmHg 33%
    21:00 +17°C° 0 mm 0 m/S 710 mmHg 33%
    22:00 +17°C° 0 mm 0 m/S 710 mmHg 32%
    23:00 +18°C° 0 mm 1 m/S 710 mmHg 32%
    Mehr zeigen